Orbital Elements at Epoch 2459200.5 (2020-Dec-17.0) TDB
Reference: JPL 19 (heliocentric ecliptic J2000)
Element | Value | Uncertainty (1-sigma) | Units |
e | .3597326105303069 | 3.2311e-08 | |
a | 2.671427185003811 | 1.0096e-08 | au |
q | 1.710427709900761 | 8.9962e-08 | au |
i | 5.681602332676151 | 3.4113e-06 | deg |
node | 257.9586343692952 | 4.8946e-05 | deg |
peri | 175.3486787189082 | 4.9352e-05 | deg |
M | 336.5589084465041 | 6.5102e-06 | deg |
tp | 2459304.345759954269 (2021-Mar-30.84575995) | 2.9021e-05 | TDB |
period | 1594.826482300115 4.37 | 9.0409e-06 2.475e-08 | d yr |
n | .2257298859753039 | 1.2796e-09 | deg/d |
Q | 3.632426660106861 | 1.3728e-08 | au |
|
| | Orbit Determination Parameters
Additional Information
|